sat.trackr.live / text

‹ back to catalog

STARLINK-31997

NORAD 60288 · 2024-132L

PAYLOAD ACTIVE UNKNOWN

§ Identity

Operator
Country
US
Launch date
2024-07-28
Launch site
AFETR
Launch vehicle
Mass (kg)
RCS (m²)

Purposes: comms

External: N2YO · Heavens-Above · Gunter

§ Orbital elements

Epoch: 2026-05-25T03:56:30.227136Z

Period
94.11 min
Inclination
53.1612°
Eccentricity
0.0001301
Mean motion
15.30195213 rev/d
Perigee alt
474.3 km
Apogee alt
476.1 km
Semi-major
6,853.4 km
B*
4.7710e-5
RAAN
56.8792°
Arg perigee
85.1784°
Mean anomaly
274.9365°
Rev number
10,327

§ Raw data

STARLINK-319971 60288U 24132L   26145.16423874  .00001054  00000+0  47710-4 0  99912 60288  53.1612  56.8792 0001301  85.1784 274.9365 15.30195213103278

JSON: /api/v1/satellites/60288 · /tle

For live sub-satellite position, see the globe view (requires WebGL).

§ Visibility from observer

Set your observer location to see the next 7 days of passes ≥ 10°. The values pass through the URL so the page stays shareable.

No JS? Fill the form by hand. The geolocation button needs JavaScript.